Location: Azul
(36.7830°S, 59.8500°W)
Time: 18:38:35
(UTC-03:00)

First-Move - Pass Details

Date: 26 October 2021
Orbit: 575 x 664 km, 97.6° (Epoch: 07 December)

Event Time Altitude Azimuth Distance (km) Brightness Sun altitude
Rises 04:21:43 0° 27° (NNE) 2,916 ? -18.8°
Reaches altitude 10° 04:23:55 10° 33° (NNE) 2,030 ? -18.5°
Maximum altitude 04:28:12 48° 106° (ESE) 857 ? -17.7°
Drops below altitude 10° 04:32:37 10° 180° (S) 2,101 ? -17.0°
Sets 04:34:56 0° 185° (S) 3,029 ? -16.6°
